sat.trackr.live / text

‹ back to catalog

STARLINK-32324

NORAD 61863 · 2024-202U

PAYLOAD ACTIVE UNKNOWN

§ Identity

Operator
Country
US
Launch date
2024-11-07
Launch site
AFETR
Launch vehicle
Mass (kg)
RCS (m²)

Purposes: comms

External: N2YO · Heavens-Above · Gunter

§ Orbital elements

Epoch: 2026-05-25T02:48:04.010112Z

Period
94.27 min
Inclination
43.0028°
Eccentricity
0.0001424
Mean motion
15.27575601 rev/d
Perigee alt
482.1 km
Apogee alt
484.0 km
Semi-major
6,861.2 km
B*
3.6093e-5
RAAN
166.5896°
Arg perigee
272.9354°
Mean anomaly
87.1334°
Rev number
8,701

§ Raw data

STARLINK-323241 61863U 24202U   26145.11671308  .00000731  00000+0  36093-4 0  99942 61863  43.0028 166.5896 0001424 272.9354  87.1334 15.27575601 87018

JSON: /api/v1/satellites/61863 · /tle

For live sub-satellite position, see the globe view (requires WebGL).

§ Visibility from observer

Set your observer location to see the next 7 days of passes ≥ 10°. The values pass through the URL so the page stays shareable.

No JS? Fill the form by hand. The geolocation button needs JavaScript.